Regional Weather Roundup
Issued by NWS Sioux Falls, SD

Home | Current Version | Previous Version | Text Only | Print | Product List | Glossary On
Versions: 1 2 3 4 5 6 7 8 9 10 11 12 13 14 15 16 17 18 19 20 21 22 23 24 25 26 27 28 29 30 31 32 33 34 35 36 37 38 39 40 41 42 43 44 45 46 47 48 49 50
848
ASUS43 KFSD 240110
RWRFSD

WEATHER ROUNDUP FOR SE SOUTH DAKOTA/SW MINNESOTA/NW IOWA
NATIONAL WEATHER SERVICE SIOUX FALLS SD
800 PM CDT TUE AUG 23 2016

NOTE: "FAIR" INDICATES FEW OR NO CLOUDS BELOW 12,000 FEET WITH NO
SIGNIFICANT WEATHER AND OR OBSTRUCTIONS TO VISIBILITY.


SDZ038>040-050-052>070-240200-
SOUTHEAST SOUTH DAKOTA

CITY           SKY/WX    TMP DP  RH WIND       PRES   REMARKS
BROOKINGS      MOCLDY    71  67  87 S8        29.80S
CHAMBERLAIN    CLEAR     80  56  42 N12       29.82R
HURON          CLEAR     78  70  76 S16       29.72F
MADISON        MOCLDY    70  70 100 S9        29.80S
MITCHELL       CLEAR     77  71  82 SE12      29.76S
SIOUX FALLS    CLOUDY    73  70  90 S6        29.78F
WINNER         FAIR      77  51  40 NW9       29.86R
YANKTON        CLEAR     75  72  88 E7        29.75R
$$

MNZ071-072-080-081-089-090-097-098-240200-
SOUTHWEST MINNESOTA

CITY           SKY/WX    TMP DP  RH WIND       PRES   REMARKS
FAIRMONT         N/A    N/A N/A N/A MISG        N/A
JACKSON        CLOUDY    68  64  88 SE12G18   29.84S FOG
LUVERNE        CLOUDY    70  64  83 S5        29.80S
MARSHALL       CLOUDY    67  66  97 SE9       29.81F
MONTEVIDEO     MOCLDY    70  66  88 S12       29.82F
PIPESTONE      CLOUDY    70  66  88 CALM      29.82S
REDWOOD FALLS  HVY RAIN  66  64  93 S14       29.82S FOG
TRACY          CLOUDY    66  66 100 CALM      29.83S THUNDER
WINDOM         CLOUDY    66  64  94 SE9       29.82S
WORTHINGTON    CLOUDY    69  68  96 S10       29.82S
$$

IAZ001>003-012>014-020>022-031-032-NEZ013-014-SDZ071-240200-
NORTHWEST IOWA

CITY           SKY/WX    TMP DP  RH WIND       PRES   REMARKS
CHEROKEE       CLOUDY    75  74  95 S5        29.81S
DENISON        MOCLDY    77  73  88 S12G20    29.81R
ESTHERVILLE    CLOUDY    65  65 100 SE10      29.84F
LE MARS        CLOUDY    77  73  88 SE5       29.79R
ORANGE CITY    PTCLDY    75  72  88 SE3       29.81R
SHELDON        CLOUDY    72  72 100 SE10G17   29.80R
SIOUX CITY     CLOUDY    79  73  82 S10       29.77F
SPENCER        CLOUDY    70  68  93 SE9       29.83S
STORM LAKE     PTCLDY    73  72  94 S12       29.83F
$$

ABBREVIATIONS USED IN REMARKS
   TC - TEMPERATURE IN CELSIUS
  WCI - WIND CHILL INDEX
   HX - HEAT INDEX
  VSB - VISIBILITY





USA.gov is the U.S. government's official web portal to all federal, state and local government web resources and services.